Lawton, OK

12:10 AM CDT on April 25, 2018 (GMT -0500)
Lawton-Fort Sill Regional

Weather History for KLAW - March, 2013

Change the Weather History Date:

Friday, March 29, 2013

  Actual Average Record
Temperature  
Mean Temperature 65 °F 58 °F  
Max Temperature 75 °F 71 °F 93 °F (1967)
Min Temperature 55 °F 44 °F 23 °F (1987)
Degree Days  
Heating Degree Days 0 8  
Month to date heating degree days 348  
Since 1 July heating degree days 2966  
Cooling Degree Days 0 1  
Month to date cooling degree days 13  
Year to date cooling degree days 14  
Growing Degree Days 15 (Base 50)    
Moisture  
Dew Point 56 °F    
Average Humidity 73    
Maximum Humidity 90    
Minimum Humidity 54    
Precipitation  
Precipitation 0.00 in 0.12 in 1.92 in (2007)
Month to date precipitation 2.08  
Year to date precipitation 4.57  
Sea Level Pressure  
Sea Level Pressure 30.02 in    
Wind  
Wind Speed 11 mph (SSE)    
Max Wind Speed 21 mph    
Max Gust Speed 29 mph    
Visibility 10 miles    
Events Thunderstorm    
T = Trace of Precipitation, MM = Missing Value Source: NWS Daily Summary

Daily Weather History Graph

Daily Weather History Graph

Search for Another Location

Airport or City:

Astronomy

Mar. 29, 2013 Rise Set
Actual Time 7:24 AM CDT 7:52 PM CDT
Civil Twilight 6:59 AM CDT 8:17 PM CDT
Nautical Twilight 6:29 AM CDT 8:47 PM CDT
Astronomical Twilight 5:59 AM CDT 9:17 PM CDT
Moon 10:45 PM CDT (3/29) 8:41 AM CDT (3/29)
Length of Visible Light 13h 18m
Length of Day
12h 28m
Waning Gibbous, 93% of the Moon is Illuminated
Mar 29
Waning Gibbous
Apr 2
Last Quarter
Apr 10
New
Apr 18
First Quarter
Apr 25
Full

Hourly Weather History & Observations

Time (CDT) Temp. Dew Point Humidity Pressure Visibility Wind Dir Wind Speed Gust Speed Precip Events Conditions
12:53 AM 59.0 °F 53.1 °F 81% 30.05 in 10.0 mi ESE 10.4 mph - N/A   Clear
1:53 AM 57.0 °F 53.1 °F 87% 30.05 in 10.0 mi ESE 6.9 mph - N/A   Clear
2:53 AM 55.9 °F 53.1 °F 90% 30.05 in 10.0 mi ESE 6.9 mph - N/A   Clear
3:53 AM 55.9 °F 52.0 °F 87% 30.04 in 10.0 mi ESE 8.1 mph - N/A   Clear
4:53 AM 55.0 °F 52.0 °F 89% 30.04 in 10.0 mi SE 6.9 mph - N/A   Clear
5:53 AM 55.9 °F 53.1 °F 90% 30.04 in 10.0 mi SSE 8.1 mph - N/A   Clear
6:53 AM 55.9 °F 53.1 °F 90% 30.06 in 10.0 mi SSE 9.2 mph - N/A   Clear
7:53 AM 57.0 °F 54.0 °F 89% 30.07 in 10.0 mi SSE 12.7 mph - N/A   Clear
8:53 AM 59.0 °F 55.0 °F 87% 30.08 in 10.0 mi SSE 13.8 mph - N/A   Clear
9:53 AM 64.0 °F 57.0 °F 78% 30.07 in 10.0 mi South 17.3 mph - N/A   Clear
10:53 AM 69.1 °F 57.9 °F 68% 30.07 in 10.0 mi South 17.3 mph - N/A   Clear
11:53 AM 71.1 °F 57.9 °F 63% 30.07 in 10.0 mi South 11.5 mph 21.9 mph N/A   Mostly Cloudy
12:53 PM 73.0 °F 57.9 °F 59% 30.05 in 10.0 mi SSW 10.4 mph 17.3 mph N/A   Scattered Clouds
1:53 PM 75.9 °F 57.9 °F 54% 30.03 in 10.0 mi South 10.4 mph - N/A   Mostly Cloudy
2:53 PM 73.0 °F 57.0 °F 57% 30.01 in 10.0 mi SSE 15.0 mph - N/A   Scattered Clouds
3:53 PM 72.0 °F 57.0 °F 59% 30.01 in 10.0 mi SE 9.2 mph 18.4 mph N/A   Clear
4:53 PM 72.0 °F 57.0 °F 59% 29.99 in 10.0 mi ESE 12.7 mph - N/A   Partly Cloudy
5:53 PM 72.0 °F 57.0 °F 59% 29.99 in 10.0 mi ESE 16.1 mph - N/A   Partly Cloudy
6:53 PM 71.1 °F 57.0 °F 61% 29.97 in 10.0 mi ESE 12.7 mph - N/A   Clear
7:53 PM 71.1 °F 54.0 °F 55% 29.97 in 10.0 mi SE 11.5 mph - N/A   Mostly Cloudy
8:53 PM 68.0 °F 55.9 °F 65% 29.96 in 10.0 mi South 17.3 mph 27.6 mph N/A   Clear
9:03 PM 68.0 °F 57.2 °F 68% 29.97 in 10.0 mi SSE 18.4 mph 24.2 mph N/A Thunderstorm Partly Cloudy
9:40 PM 66.2 °F 57.2 °F 73% 29.98 in 10.0 mi SSE 16.1 mph 25.3 mph N/A   Partly Cloudy
9:53 PM 64.9 °F 57.9 °F 78% 29.96 in 10.0 mi SSE 16.1 mph 23.0 mph N/A   Clear
10:02 PM 64.4 °F 57.2 °F 77% 29.98 in 10.0 mi South 20.7 mph 25.3 mph N/A Thunderstorm Thunderstorm
10:17 PM 64.4 °F 57.2 °F 77% 29.96 in 10.0 mi South 20.7 mph 28.8 mph N/A   Clear
10:53 PM 64.0 °F 55.9 °F 75% 29.96 in 10.0 mi South 17.3 mph 28.8 mph N/A   Clear
11:53 PM 64.0 °F 55.9 °F 75% 29.98 in 10.0 mi SSE 9.2 mph - N/A   Clear